Lake Shasta Weather Center

Moon Phase Calendar



Lake Shasta Water Level
Online Cameras

 


      

Current Conditions in Lake Shasta
6/17/2024 4:18:53 PM

79°F
Feels Like 79
Clear
Humidity
18%
Pressure
29.85"
Wind
3 mph (NW)
Dew Point
32°F
UV Index
5/10 (Moderate)
Visibility
6 mi

Hourly Forecast

Date & Time Mon, Jun 17
4:00 PM
Mon, Jun 17
5:00 PM
Mon, Jun 17
6:00 PM
Mon, Jun 17
7:00 PM
Mon, Jun 17
8:00 PM
Mon, Jun 17
9:00 PM
Mon, Jun 17
10:00 PM
Mon, Jun 17
11:00 PM
Tue, Jun 18
12:00 AM
Tue, Jun 18
1:00 AM
Tue, Jun 18
2:00 AM
Tue, Jun 18
3:00 AM
Tue, Jun 18
4:00 AM
Tue, Jun 18
5:00 AM
Tue, Jun 18
6:00 AM
Tue, Jun 18
7:00 AM
Tue, Jun 18
8:00 AM
Tue, Jun 18
9:00 AM
Tue, Jun 18
10:00 AM
Tue, Jun 18
11:00 AM
Tue, Jun 18
12:00 PM
Tue, Jun 18
1:00 PM
Tue, Jun 18
2:00 PM
Tue, Jun 18
3:00 PM
Tue, Jun 18
4:00 PM
Tue, Jun 18
5:00 PM
Tue, Jun 18
6:00 PM
Tue, Jun 18
7:00 PM
Tue, Jun 18
8:00 PM
Tue, Jun 18
9:00 PM
Tue, Jun 18
10:00 PM
Tue, Jun 18
11:00 PM
Wed, Jun 19
12:00 AM
Wed, Jun 19
1:00 AM
Wed, Jun 19
2:00 AM
Wed, Jun 19
3:00 AM
Wed, Jun 19
4:00 AM
Wed, Jun 19
5:00 AM
Wed, Jun 19
6:00 AM
Wed, Jun 19
7:00 AM
Wed, Jun 19
8:00 AM
Wed, Jun 19
9:00 AM
Wed, Jun 19
10:00 AM
Wed, Jun 19
11:00 AM
Wed, Jun 19
12:00 PM
Wed, Jun 19
1:00 PM
Wed, Jun 19
2:00 PM
Wed, Jun 19
3:00 PM
Condition
Clear

Clear

Clear

Clear

Clear

Clear

Clear

Clear

Clouds

Clouds

Clouds

Clouds

Clouds

Clouds

Clear

Clear

Clear

Clear

Clear

Clear

Clear

Clear

Clear

Clear

Clear

Clouds

Clouds

Clouds

Clouds

Clouds

Clouds

Clouds

Clouds

Clouds

Clouds

Clouds

Clouds

Clouds

Clouds

Clouds

Clouds

Clouds

Clouds

Clouds

Clouds

Clouds

Clouds

Clouds
Temperature 79°F79°F80°F79°F72°F62°F58°F55°F53°F52°F51°F49°F48°F48°F48°F52°F61°F68°F74°F79°F85°F88°F89°F89°F89°F87°F86°F84°F73°F67°F63°F61°F61°F61°F59°F58°F58°F57°F55°F58°F65°F73°F79°F82°F85°F87°F89°F90°F
Feels Like 79°F79°F80°F77°F70°F59°F55°F52°F50°F49°F48°F46°F45°F44°F44°F50°F58°F66°F72°F79°F82°F84°F85°F85°F85°F84°F83°F81°F71°F64°F60°F58°F58°F58°F56°F55°F55°F54°F52°F55°F62°F71°F79°F80°F82°F84°F85°F86°F
Cloudiness 2%2%2%1%1%1%1%0%100%100%100%83%68%60%0%0%0%0%0%0%0%0%0%1%4%14%31%35%58%69%75%79%100%100%100%100%100%100%99%100%100%100%100%100%46%38%28%21%
Visibility 6 mi6 mi6 mi6 mi6 mi6 mi6 mi6 mi6 mi6 mi6 mi6 mi6 mi6 mi6 mi6 mi6 mi6 mi6 mi6 mi6 mi6 mi6 mi6 mi6 mi6 mi6 mi6 mi6 mi6 mi6 mi6 mi6 mi6 mi6 mi6 mi6 mi6 mi6 mi6 mi6 mi6 mi6 mi6 mi6 mi6 mi6 mi6 mi
Precipitation 0%0%0%0%0%0%0%0%0%0%0%0%0%0%0%0%0%0%0%0%0%0%0%0%0%0%0%0%0%0%0%0%0%0%0%0%0%0%0%0%0%0%0%0%0%0%0%0%
Humidity 18%16%14%13%21%26%30%35%39%42%45%49%51%53%52%45%32%25%20%15%11%9%8%7%7%7%7%10%17%18%21%26%27%26%25%25%24%25%26%27%21%16%13%12%11%11%10%9%
Dew Point 32°F30°F27°F25°F30°F27°F27°F28°F29°F30°F30°F31°F31°F31°F31°F32°F31°F31°F30°F28°F24°F22°F20°F18°F18°F16°F16°F21°F26°F21°F23°F26°F27°F26°F24°F23°F22°F21°F21°F25°F24°F24°F25°F24°F25°F26°F25°F23°F
Pressure 29.85"29.85"29.83"29.8"29.8"29.83"29.85"29.88"29.88"29.88"29.88"29.88"29.88"29.88"29.88"29.88"29.85"29.83"29.8"29.77"29.77"29.74"29.74"29.71"29.68"29.68"29.65"29.65"29.68"29.71"29.77"29.77"29.8"29.8"29.8"29.8"29.8"29.8"29.8"29.8"29.8"29.8"29.8"29.77"29.77"29.74"29.71"29.68"
Wind Speed 2.4 mph4.9 mph6.7 mph7.9 mph5.6 mph6.9 mph7.6 mph7.5 mph7.8 mph7.6 mph7.9 mph8.1 mph8.2 mph7.9 mph8 mph7.3 mph7.1 mph6.9 mph5.9 mph4.5 mph2.6 mph0.6 mph0.7 mph1.8 mph3.3 mph4.1 mph4.4 mph4.4 mph1.9 mph3.5 mph6.7 mph6.6 mph6.6 mph6 mph5.8 mph5.6 mph5.6 mph5.6 mph5.7 mph4.9 mph4.2 mph2.5 mph1.3 mph3.3 mph5.3 mph5.9 mph5.9 mph6.2 mph
Wind
Direction
40°
NE
44°
NE
30°
NNE
26°
NNE
19°
NNE
352°
N
346°
NNW
351°
N
352°
N
351°
N
347°
NNW
350°
N
350°
N
349°
N
350°
N
349°
N
358°
N

N

N
17°
NNE
20°
NNE
352°
N
216°
SW
177°
S
152°
SSE
148°
SSE
146°
SE
147°
SSE
172°
S
342°
NNW
350°
N
352°
N
346°
NNW
342°
NNW
346°
NNW
347°
NNW
344°
NNW
350°
N
347°
NNW
353°
N

N
24°
NNE
128°
SE
159°
SSE
171°
S
182°
S
189°
S
184°
S

Daily Forecast

Date High Low Precip. Humidity
Today
Jun 17

Clear
80 °F
41 °F
0%
14%
Tuesday
Jun 18

Clear
89 °F
48 °F
0%
9%
Wednesday
Jun 19

Clouds
90 °F
55 °F
0%
11%
Thursday
Jun 20

Clouds
96 °F
55 °F
0%
11%
Friday
Jun 21

Clear
104 °F
60 °F
0%
9%
Saturday
Jun 22

Clear
100 °F
64 °F
0%
13%
Sunday
Jun 23

Clear
96 °F
60 °F
0%
15%
Monday
Jun 24

Clear
97 °F
59 °F
0%
15%
Tuesday
Jun 25

Clear
90 °F
58 °F
0%
18%
Wednesday
Jun 26

Clear
84 °F
49 °F
0%
20%
Thursday
Jun 27

Clouds
63 °F
48 °F
0%
48%
Friday
Jun 28

Clouds
79 °F
44 °F
0%
18%
Saturday
Jun 29

Clear
89 °F
48 °F
0%
16%
Sunday
Jun 30

Clear
94 °F
53 °F
0%
15%
Monday
Jul 1

Clear
105 °F
56 °F
0%
8%
Tuesday
Jul 2

Clear
103 °F
62 °F
0%
8%

Temperature 8-14 Day Outlook



Precipitation 8-14 Day Outlook






About Us
Contact Us
Site Map
Search Site
Advertise With Us
   
Shasta.USLakes.info
THE LAKE SHASTA WEBSITE

Copyright 2024, Lakes Online
Privacy    |    Legal